Regional Weather Roundup
Issued by NWS Charleston, WV

Home | Current Version | Previous Version | Graphics & Text | Print | Product List | Glossary On
Versions: 1 2 3 4 5 6 7 8 9 10 11 12 13 14 15 16 17 18 19 20 21 22 23 24 25 26 27 28 29 30 31 32 33 34 35 36 37 38 39 40 41 42 43 44 45 46 47 48 49 50
000
ASUS41 KRLX 202010
RWRRLX
West Virginia Regional Weather Roundup
National Weather Service Charleston WV
400 PM EDT MON OCT 20 2014

Note: "fair" indicates few or no clouds below 12,000 feet with no
significant weather and/or obstructions to visibility.

WVZ003-202100-
Northern Panhandle of West Virginia

CITY           SKY/WX    TMP DP  RH WIND       PRES   REMARKS
WHEELING       PTSUNNY   56  42  59 S12       29.89F
$$

WVZ009-202100-
Northwest West Virginia

CITY           SKY/WX    TMP DP  RH WIND       PRES   REMARKS
PARKERSBURG    CLOUDY    58  43  57 S14       29.94F
$$

WVZ006-202100-
Western West Virginia

CITY           SKY/WX    TMP DP  RH WIND       PRES   REMARKS
HUNTINGTON     CLOUDY    58  46  64 S10G17    29.93F
$$

WVZ015-202100-
West Central West Virginia

CITY           SKY/WX    TMP DP  RH WIND       PRES   REMARKS
CHARLESTON     CLOUDY    59  47  64 SW5       29.94F
$$

WVZ022-031-202100-
North Central West Virginia

CITY           SKY/WX    TMP DP  RH WIND       PRES   REMARKS
CLARKSBURG     CLOUDY    57  42  57 SW10      29.93F
MORGANTOWN     CLOUDY    59  38  45 SW10      29.93F
$$

WVZ025-035-042-045-202100-
Southern West Virginia

CITY           SKY/WX    TMP DP  RH WIND       PRES   REMARKS
BECKLEY        CLOUDY    57  42  57 S8        29.97F
LOGAN          MOCLDY    59  46  63 SW5       29.95S
BLUEFIELD      CLOUDY    59  38  45 W9        30.00F
LEWISBURG      CLOUDY    60  39  45 CALM      29.98S
$$

WVZ047-202100-
Northern Mountains of West Virginia

CITY           SKY/WX    TMP DP  RH WIND       PRES   REMARKS
ELKINS         LGT RAIN  53  43  68 VRB7      29.97S
$$

WVZ052-202100-
Eastern Panhandle of West Virginia

CITY           SKY/WX    TMP DP  RH WIND       PRES   REMARKS
MARTINSBURG    CLOUDY    63  37  38 S5        29.95F
PETERSBURG     CLOUDY   N/A N/A N/A NW3       29.96R
$$



USA.gov is the U.S. government's official web portal to all federal, state and local government web resources and services.